Regional Weather Roundup
Issued by NWS

Home | Current Version | Previous Version | Text Only | Print | Product List | Glossary On
Versions: 1 2 3 4 5 6 7 8 9 10 11 12 13 14 15 16 17 18 19 20 21 22 23 24 25 26 27 28
000
ASUS45 KSLC 240310
RWRUT

UTAH REGIONAL WEATHER ROUNDUP
NATIONAL WEATHER SERVICE SALT LAKE CITY UT
800 PM MST THU FEB 23 2017

UTZ001>011-023>025-240400-

NORTHERN UTAH

CITY           SKY/WX    TMP DP  RH WIND       PRES   REMARKS
BRIGHAM CITY     N/A     29  23  77 N13       29.88S WCI  19
HILL AFB       HVY SNOW  25  23  93 NW15      29.85S VSB 0   WCI  12
LOGAN          LGT SNOW  28  24  85 N7        29.87R FOG     WCI  21
OGDEN          HVY SNOW  25  25 100 NW10      29.85S VSB 1/4 WCI  15
SALT LAKE CITY CLOUDY    29  25  85 W9        29.88S WCI  20
TOOELE VALLEY  MOCLDY    30  23  74 E3        29.90S
WENDOVER       PTCLDY    28   9  43 N22G29    29.89S WCI  15
HEBER CITY     CLOUDY    23  16  74 N5        29.81R WCI  17
WEST JORDAN    CLOUDY    30  30 100 CALM      29.89S

$$

UTZ011>015-024>027-240400-

CENTRAL/NORTHEAST UTAH

CITY           SKY/WX    TMP DP  RH WIND       PRES   REMARKS
PROVO AIRPORT  CLOUDY    25  21  86 E5        29.89S FOG     WCI  19
MOAB/CANYONLAN PTCLDY    28  18  66 W5        29.77S WCI  23
DELTA          MOCLDY    28  27  93 CALM      29.87S
PRICE          PTCLDY    26  11  52 NW9       29.77S WCI  17
ROOSEVELT      CLOUDY    28  23  80 N6        29.79R WCI  22
VERNAL         LGT SNOW  26  23  88 E3        29.77F FOG

$$

UTZ013>016-019>022-027-240400-

SOUTHERN UTAH

CITY           SKY/WX    TMP DP  RH WIND       PRES   REMARKS
BRYCE CANYON   CLOUDY    19  10  68 NW7       29.81R WCI  10
CEDAR CITY     PTCLDY    28  15  58 SW7       29.84R WCI  21
MILFORD        PTCLDY    28  23  81 SE3       29.86R
ST GEORGE      CLOUDY    46  11  24 W8        29.90R
HANKSVILLE     CLEAR     34   5  29 NW8       29.83R WCI  27
BLANDING       PTCLDY    28  11  49 NW6       29.85S WCI  21

$$

REGIONAL REPORTS     COLORADO/ARIZONA

CITY           SKY/WX    TMP DP  RH WIND       PRES   REMARKS
CRAIG, CO      CLOUDY    22  16  78 SW12      29.73S WCI  10
GRAND JUNCTION PTCLDY    28  23  81 W5        29.79R WCI  23
RIFLE, CO      CLOUDY    28  22  78 NW6       29.77R WCI  22
MONTROSE, CO   PTCLDY    30   5  34 W5        29.79R WCI  25
CORTEZ, CO     CLEAR     23  12  62 S5        29.78S WCI  17
COLORADO CITY    N/A     32  12  43 W3        29.90S
PAGE, AZ       PTCLDY    40   4  22 W8G17     29.84R WCI  34
GRAND CANYON   CLEAR     26  10  50 SW5       29.85S WCI  20
KINGMAN, AZ    CLEAR     43 -15   8 W10       29.94R
FLAGSTAFF, AZ  PTCLDY    29  16  58 SW9       29.84R WCI  20

$$

REGIONAL REPORTS    NEVADA/IDAHO/WYOMING

CITY           SKY/WX    TMP DP  RH WIND       PRES   REMARKS
LAS VEGAS, NV  PTCLDY    51   4  14 NW8G20    29.92R
ELY, NY        PTCLDY    16   7  67 NW8       29.89R WCI   5
ELKO, NV       CLOUDY    25  10  53 VRB3      29.96R
POCATELLO, ID  LGT SNOW  25  22  88 SW22G32   29.84R FOG     WCI  10
BURLEY, ID     LGT SNOW  27  21  78 W17G26    29.87S WCI  14
FORT BRIDGER,  LGT SNOW  19  19 100 W8        29.79R WCI   9
EVANSTON, WY   CLOUDY    17  13  84 SW13      29.75R WCI   4
ROCK SPRINGS,  CLOUDY    19  12  74 NE18G29   29.72R WCI   4

$$




USA.gov is the U.S. government's official web portal to all federal, state and local government web resources and services.